Home > Weather > Kathmandu > Past weeks

Flag for Nepal Weather for the Past 2 Weeks in Kathmandu, Nepal

Now
79 °F

Partly sunny.


Feels Like: 79 °F
Forecast: 56 / 77 °F
Wind: 6 mph from Southwest

Location: Kathmandu Airport

Current Time: May 4, 2016 at 12:50:18 PM

Latest Report: May 4, 2016 at 12:05 PM


Visibility: 4 mi

Pressure: 29.98 "Hg (25.83 "Hg at 1305m altitude)

Humidity: 45%

Dew Point: 55 °F

Location of KathmanduLocation

Historic Weather in Kathmandu — Graph

°F

Kathmandu Temperature Yesterday

Maximum temperature yesterday: 82 °F (at 1:05 PM)
Minimum temperature yesterday: 63 °F (at 5:35 AM)
Average temperature yesterday: 72 °F

High & Low Weather Summary for the Past Weeks

 TemperatureHumidityPressure
High90 °F (Apr 20, 12:35 PM)88% (May 3, 5:35 AM)30.04 "Hg (May 3, 5:35 AM)
Low55 °F (Apr 24, 5:35 AM)7% (Apr 30, 12:35 PM)29.68 "Hg (Apr 23, 4:05 PM)
Average74 °F43%29.91 "Hg
* Reported Apr 19 11:05 AM — May 4 11:35 AM, Kathmandu, Weather by CustomWeather, © 2016

Note: Actual official high and low records may vary slightly from our data, if they occured in-between our weather recording intervals... More about our weather records

Advertising

Kathmandu Weather History for the Previous 24 Hours

Scroll right to see more
 ConditionsComfort  
Time TempWeatherWind HumidityBarometerVisibility
11:35 AM
Wed, May 4
79 °FPartly sunny.5 mph45%30.01 "Hg4 mi
11:05 AM79 °FPartly sunny.5 mph45%30.01 "Hg4 mi
10:05 AM75 °FPartly sunny.5 mph50%30.04 "Hg3 mi
9:35 AM73 °FPartly sunny.5 mph53%30.04 "Hg3 mi
9:05 AM72 °FPartly sunny.3 mph57%30.04 "Hg3 mi
8:35 AM70 °FPartly sunny.2 mph57%30.04 "Hg3 mi
8:05 AM68 °FPartly sunny.No wind64%30.01 "Hg2 mi
7:35 AM64 °FPartly sunny.2 mph68%30.01 "Hg2 mi
7:05 AM63 °FPartly sunny.3 mph73%30.01 "Hg2 mi
6:35 AM63 °FPartly sunny.5 mph68%29.98 "Hg2 mi
6:05 AM61 °FPassing clouds.3 mph72%29.98 "Hg2 mi
5:35 AM59 °FPassing clouds.3 mph77%29.98 "Hg2 mi
4:35 AM61 °FPassing clouds.3 mph72%29.98 "Hg4 mi
3:35 AM59 °FPassing clouds.5 mph77%29.98 "Hg4 mi
2:35 AM61 °FPassing clouds.5 mphN/A29.98 "Hg4 mi
1:35 AM61 °FPassing clouds.No windN/A29.98 "Hg4 mi
12:35 AM63 °FPassing clouds.5 mph68%29.98 "Hg4 mi
12:05 AM63 °FPassing clouds.3 mph68%29.98 "Hg4 mi
11:35 PM
Tue, May 3
63 °FPassing clouds.5 mph73%29.98 "Hg4 mi
11:05 PM64 °FPartly cloudy.3 mph73%30.01 "Hg4 mi
10:35 PM64 °FPartly cloudy.3 mph73%30.01 "Hg3 mi
10:05 PM66 °FPartly cloudy.3 mph64%30.01 "Hg3 mi
9:35 PM66 °FThunderstorms. Partly cloudy.6 mph64%30.01 "Hg3 mi
9:05 PM66 °FThunderstorms. Partly cloudy.6 mph60%30.01 "Hg3 mi
7:05 PM72 °FThunderstorms. Broken clouds.13 mph47%30.01 "Hg3 mi
6:05 PM73 °FThunderstorms. More clouds than sun.16 mph41%29.95 "Hg3 mi
5:05 PM77 °FThunderstorms. Broken clouds.7 mph61%29.92 "Hg3 mi
4:35 PM79 °FThunderstorms. Broken clouds.6 mph58%29.92 "Hg3 mi
4:05 PM81 °FBroken clouds.7 mph54%29.92 "Hg3 mi
3:35 PM81 °FBroken clouds.6 mph54%29.92 "Hg3 mi
3:05 PM81 °FPartly sunny.9 mph48%29.92 "Hg3 mi
2:35 PM81 °FPartly sunny.9 mph45%29.95 "Hg3 mi
2:05 PM81 °FPartly sunny.10 mph45%29.95 "Hg3 mi
1:35 PM81 °FScattered clouds.5 mph48%29.98 "Hg3 mi
1:05 PM82 °FScattered clouds.6 mph45%29.98 "Hg2 mi
12:35 PM81 °FScattered clouds.5 mph48%30.01 "Hg2 mi
12:05 PM81 °FScattered clouds.6 mph51%30.01 "Hg3 mi
Weather by CustomWeather, © 2016

See weather overviewHow to use our weather pages